Volver al catálogo

SL-14 DEB

ActivoPO
NORAD 21913·DEBRIS·🇷🇺 Russia

Lanzado Oct 26, 1978 desde Plesetsk Cosmodrome

Loading…

Próximos Pases (próximas 24 horas)

TLE

ActualizadoSource: Space-Track

Época: Sep 14, 2026, 03:40 UTC

1 21913U 78100AR  26257.15288006  .00000445  00000-0  53996-2 0  9991
2 21913  82.5474 323.3211 0028221  60.7635 326.4535 12.00071036518939

Sigue SL-14 DEB en tiempo real con AllMySat

Download on the App Store